Location: Unspecified
(12.6500°N, 0.0000°E)
Time: 23:00:25
(UTC+00:00)

OTV 5 (USA 277) - Visible Passes

Search period start: 26 May 2019 00:00
Search period end: 05 June 2019 00:00
Orbit: 310 x 325 km, 54.5° (Epoch: 08 May)

Date Brightness Start Highest point End Pass type
(mag) Time Alt. Az. Time Alt. Az. Time Alt. Az.
28 May ? 04:17:04 11° SSE 04:18:28 15° ESE 04:20:10 10° E visible
29 May ? 04:31:58 31° SSW 04:33:05 79° ESE 04:35:49 10° NE visible
30 May ? 04:46:46 16° W 04:47:47 19° NW 04:49:50 10° N visible
31 May ? 03:30:33 12° ENE 03:30:33 12° ENE 03:30:49 10° ENE visible
01 Jun ? 03:45:11 13° NNE 03:45:11 13° NNE 03:45:34 10° NNE visible
